P/2001 Q6 ( NEAT )

Japanese version
Home page
Updated on March 12, 2002

---------------------------------------------------------------------

* Profile

Discovery Date August 28, 2001
Magnitude 17.6 mag
Discoverer Near-Earth-Asteroid Tracking Team (Jet Propulsion Laboratory)

* Orbital Elements

Epoch 2001 Nov. 27.0 TT = JDT 2452240.5
T 2001 Nov.  9.46706 TT                                 MPC
q   1.4081735            (2000.0)            P               Q
n   0.04361319     Peri.   43.33018     +0.53242764     -0.78548649
a   7.9932640      Node    22.13540     +0.34178713     -0.14148065
e   0.8238300      Incl.   56.85465     +0.77440452     +0.60249000
P  22.60

* Finding Charts

* Magnitudes Graph

        m1 = 14.0 + 5 log d +  10.0 log r  [   ,-50]  (             - 2001 Sept.20)
        m1 = -5.0 + 5 log d + 110   log r  [-50,  0]  (2001 Sept.20 - 2001 Nov.  9)
        m1 =  6.8 + 5 log d +  30.0 log r  [  0,   ]  (2001 Nov . 9 -             )

---------------------------------------------------------------------

The orbital elements are calculated by Dr. Brian G. Marsden and printed on M.P.E.C. 2001-X72.
The charts are made with StellaNavigator Ver.2.0 for Windows (AstroArts / ASCII).
The magnitudes graphs are made with Comet for Windows.

---------------------------------------------------------------------

Copyright(C) Seiichi Yoshida (comet@aerith.net). All rights reserved.